Regional Weather Roundup
Issued by NWS Goodland, KS

Home | Current Version | Previous Version | Graphics & Text | Print | Product List | Glossary On
Versions: 1 2 3 4 5 6 7 8 9 10 11 12 13 14 15 16 17 18 19 20 21 22 23 24 25 26 27 28 29 30 31 32 33 34 35 36 37 38 39 40 41 42 43 44 45 46 47 48 49 50
411
ASUS43 KGLD 221008
RWRGLD

GOODLAND FORECAST AREA HOURLY WEATHER ROUNDUP
NATIONAL WEATHER SERVICE GOODLAND KS
400 AM MDT SUN APR 22 2018

...OFFICIAL OBSERVATIONS...

CITY           SKY/WX    TMP DP  RH WIND       PRES   REMARKS
GOODLAND KS    CLOUDY    38  37  97 CALM      30.21R FOG
HILL CITY KS   CLOUDY    42  41  96 N7        30.22S FOG
IMPERIAL NEB   CLOUDY    39  39 100 S7        30.21S
MCCOOK NEB     CLOUDY    39  39 100 NW3       30.22R FOG
AKRON CO       FAIR      33  30  88 S6        30.15S
BURLINGTON CO  FAIR      31  30  96 SE5       30.19S FOG
LIMON CO       CLOUDY    36  35  96 S7        30.16F
$$

...UNOFFICIAL OBSERVATIONS...

CITY           SKY/WX    TMP DP  RH WIND       PRES   REMARKS
NORTON KS      PTCLDY    39  37  93 NW7       30.21  FOG
KIT CARSON CO    N/A     34  32  92 CALM        N/A
YUMA CO        FOG       32  32 100 S3        30.18S VSB 1/4
$$




USA.gov is the U.S. government's official web portal to all federal, state and local government web resources and services.